Rockford, IL

6:38 AM CST on December 06, 2016 (GMT -0600)
Greater Rockford

Weather History for KRFD - September, 2013

Change the Weather History Date:

Thursday, September 5, 2013

  Actual Average Record
Temperature  
Mean Temperature 69 °F 68 °F  
Max Temperature 78 °F 79 °F 100 °F (1925)
Min Temperature 60 °F 57 °F 41 °F (1924)
Degree Days  
Heating Degree Days 0 1  
Month to date heating degree days 0 5  
Since 1 July heating degree days 11 19  
Cooling Degree Days 4 5  
Month to date cooling degree days 19 25  
Year to date cooling degree days 768 752  
Growing Degree Days 20 (Base 50)    
Moisture  
Dew Point 59 °F    
Average Humidity 71    
Maximum Humidity 93    
Minimum Humidity 48    
Precipitation  
Precipitation 0.00 in 0.11 in 1.22 in (1929)
Month to date precipitation 0.00 0.59  
Year to date precipitation 32.00 26.25  
Snow  
Snow 0.00 in 0.00 in 0.00 in ()
Month to date snowfall 0.0 0.0  
Since 1 July snowfall 0.0 0.0  
Since 1 September snowfall 0.0 0.0  
Snow Depth 0.00 in    
Sea Level Pressure  
Sea Level Pressure 30.21 in    
Wind  
Wind Speed 8 mph (East)    
Max Wind Speed 16 mph    
Max Gust Speed 21 mph    
Visibility 8 miles    
Events      
T = Trace of Precipitation, MM = Missing Value Source: NWS Daily Summary

Daily Weather History Graph

Daily Weather History Graph

Search for Another Location

Airport or City:

Trip Planner

Search our weather history database for the weather conditions in past years. The results will help you decide how hot, cold, wet, or windy it might be!

Date:

Astronomy

Sep. 05, 2013 Rise Set
Actual Time 6:26 AM CDT 7:22 PM CDT
Civil Twilight 5:57 AM CDT 7:51 PM CDT
Nautical Twilight 5:23 AM CDT 8:25 PM CDT
Astronomical Twilight 4:48 AM CDT 9:00 PM CDT
Moon 6:38 AM CDT (9/5) 7:12 PM CDT (9/5)
Length of Visible Light 13h 53m
Length of Day
12h 56m
New Moon, 0% of the Moon is Illuminated
Sep 5
New Moon
Sep 12
First Quarter
Sep 19
Full
Sep 26
Last Quarter
Oct 4
New

Hourly Weather History & Observations

Time (CDT) Temp. Dew Point Humidity Pressure Visibility Wind Dir Wind Speed Gust Speed Precip Events Conditions
12:54 AM 64.9 °F 62.1 °F 90% 30.14 in 10.0 mi Variable 3.5 mph - N/A   Scattered Clouds
1:54 AM 66.0 °F 62.1 °F 87% 30.15 in 10.0 mi ENE 3.5 mph - N/A   Scattered Clouds
2:35 AM 64.4 °F 62.6 °F 94% 30.17 in 1.0 mi ENE 9.2 mph - N/A   Overcast
2:43 AM 64.4 °F 62.6 °F 94% 30.17 in 1.0 mi ENE 9.2 mph - N/A   Overcast
2:54 AM 64.9 °F 63.0 °F 93% 30.16 in 0.5 mi ENE 6.9 mph - N/A   Overcast
3:38 AM 66.2 °F 64.4 °F 94% 30.18 in 1.0 mi East 6.9 mph - N/A   Overcast
3:54 AM 66.0 °F 64.9 °F 96% 30.17 in 1.0 mi East 4.6 mph - N/A   Overcast
4:01 AM 66.2 °F 64.4 °F 94% 30.17 in 2.0 mi East 6.9 mph - N/A   Overcast
4:33 AM 66.2 °F 64.4 °F 94% 30.19 in 3.0 mi ESE 3.5 mph - N/A   Overcast
4:54 AM 66.9 °F 64.9 °F 93% 30.17 in 4.0 mi ESE 6.9 mph - N/A   Overcast
5:10 AM 66.2 °F 64.4 °F 94% 30.20 in 8.0 mi East 8.1 mph - N/A   Overcast
5:54 AM 66.9 °F 64.0 °F 90% 30.20 in 7.0 mi East 6.9 mph - N/A   Overcast
6:17 AM 66.2 °F 64.4 °F 94% 30.20 in 7.0 mi ESE 5.8 mph - N/A   Overcast
6:38 AM 66.2 °F 64.4 °F 94% 30.21 in 8.0 mi ENE 6.9 mph - N/A   Overcast
6:54 AM 66.9 °F 64.0 °F 90% 30.21 in 8.0 mi ENE 8.1 mph - N/A   Overcast
7:54 AM 66.9 °F 59.0 °F 76% 30.22 in 10.0 mi ENE 10.4 mph - N/A   Overcast
8:54 AM 66.9 °F 57.9 °F 73% 30.23 in 10.0 mi ENE 9.2 mph - N/A   Overcast
9:54 AM 69.1 °F 55.0 °F 61% 30.25 in 10.0 mi East 11.5 mph - N/A   Overcast
10:54 AM 72.0 °F 54.0 °F 53% 30.25 in 10.0 mi ENE 12.7 mph - N/A   Mostly Cloudy
11:54 AM 72.0 °F 54.0 °F 53% 30.27 in 10.0 mi East 12.7 mph - N/A   Overcast
12:17 PM 73.4 °F 53.6 °F 50% 30.27 in 10.0 mi East 8.1 mph 17.3 mph N/A   Mostly Cloudy
12:45 PM 75.2 °F 55.4 °F 50% 30.27 in 10.0 mi ESE 8.1 mph - N/A   Mostly Cloudy
12:54 PM 73.9 °F 55.0 °F 52% 30.26 in 10.0 mi SE 11.5 mph - N/A   Mostly Cloudy
1:54 PM 77.0 °F 57.0 °F 50% 30.24 in 10.0 mi East 9.2 mph - N/A   Scattered Clouds
2:54 PM 78.1 °F 57.0 °F 48% 30.23 in 10.0 mi East 10.4 mph - N/A   Scattered Clouds
3:54 PM 77.0 °F 57.9 °F 52% 30.22 in 10.0 mi East 10.4 mph - N/A   Partly Cloudy
4:54 PM 75.9 °F 57.0 °F 52% 30.22 in 10.0 mi SE 8.1 mph - N/A   Partly Cloudy
5:54 PM 75.0 °F 57.0 °F 53% 30.21 in 10.0 mi SE 6.9 mph - N/A   Clear
6:54 PM 72.0 °F 55.9 °F 57% 30.21 in 10.0 mi ESE 6.9 mph - N/A   Partly Cloudy
7:54 PM 69.1 °F 55.0 °F 61% 30.22 in 10.0 mi East 8.1 mph - N/A   Scattered Clouds
8:54 PM 66.0 °F 51.1 °F 59% 30.23 in 10.0 mi East 10.4 mph - N/A   Partly Cloudy
9:54 PM 64.0 °F 48.9 °F 58% 30.25 in 10.0 mi East 9.2 mph - N/A   Mostly Cloudy
10:54 PM 62.1 °F 48.0 °F 60% 30.25 in 10.0 mi East 8.1 mph - N/A   Scattered Clouds
11:54 PM 60.1 °F 48.0 °F 64% 30.24 in 10.0 mi ESE 4.6 mph - N/A   Partly Cloudy